Shawbury, United Kingdom

12:38 PM GMT on January 18, 2017 (GMT +0000)
Shawbury Air Base

Weather History for EGOS - May, 2013

Change the Weather History Date:

Sunday, May 26, 2013

  Actual Average Record
Temperature  
Mean Temperature 50 °F -  
Max Temperature 64 °F 62 °F 76 °F (2012)
Min Temperature 36 °F 47 °F 36 °F (2013)
Degree Days  
Heating Degree Days 15    
Moisture  
Dew Point 42 °F    
Average Humidity 71    
Maximum Humidity 100    
Minimum Humidity 38    
Precipitation  
Precipitation 0.00 in - - ()
Sea Level Pressure  
Sea Level Pressure 30.07 in    
Wind  
Wind Speed 5 mph ()    
Max Wind Speed 15 mph    
Max Gust Speed -    
Visibility 8.1 miles    
Events      
Averages and records for this station are not official NWS values.
T = Trace of Precipitation, MM = Missing Value Source: Averaged Metar Reports

Daily Weather History Graph

Daily Weather History Graph

Search for Another Location

Airport or City:

Trip Planner

Search our weather history database for the weather conditions in past years. The results will help you decide how hot, cold, wet, or windy it might be!

Date:

Astronomy

May. 26, 2013 Rise Set
Actual Time 4:58 AM BST 9:18 PM BST
Civil Twilight 4:11 AM BST 10:04 PM BST
Nautical Twilight 3:02 AM BST 11:15 PM BST
Astronomical Twilight 1:40 AM BST 12:35 AM BST
Moon 10:47 PM BST (5/26) 6:14 AM BST (5/26)
Length of Visible Light 17h 53m
Length of Day
16h 19m
Full, 97% of the Moon is Illuminated
May 26
Full
May 31
Last Quarter
Jun 8
New
Jun 16
First Quarter
Jun 23
Full

Hourly Weather History & Observations

Time (BST) Temp. Windchill Dew Point Humidity Pressure Visibility Wind Dir Wind Speed Gust Speed Precip Events Conditions
12:50 AM 41 °F - 36 °F 77% 30.19 in 15 mi WSW 4.6 mph - -  
12:50 AM 41.0 °F 38.0 °F 35.6 °F 81% 30.15 in 6.2 mi WSW 4.6 mph - N/A   Unknown
1:50 AM 41.0 °F 36.4 °F 37.4 °F 87% 30.15 in 6.2 mi West 6.9 mph - N/A   Unknown
2:50 AM 41.0 °F - 37.4 °F 87% 30.15 in 6.2 mi SSW 1.2 mph - N/A   Unknown
3:50 AM 39 °F - 36 °F 86% 30.17 in 11 mi South 2.3 mph - -  
3:50 AM 39.2 °F - 35.6 °F 87% 30.15 in 6.2 mi South 2.3 mph - N/A   Unknown
4:50 AM 37.4 °F - 37.4 °F 100% 30.15 in 6.2 mi West 2.3 mph - N/A   Unknown
5:50 AM 39.2 °F - 37.4 °F 93% 30.15 in 6.2 mi SW 2.3 mph - N/A   Unknown
6:50 AM 41 °F - 40 °F 93% 30.16 in 9 mi WSW 2.3 mph - -  
6:50 AM 41.0 °F - 39.2 °F 93% 30.15 in 6.2 mi WSW 2.3 mph - N/A   Unknown
7:50 AM 46.4 °F 43.5 °F 39.2 °F 76% 30.12 in 6.2 mi West 5.8 mph - N/A   Unknown
8:50 AM 50.0 °F - 41.0 °F 71% 30.12 in 6.2 mi West 3.5 mph - N/A   Unknown
9:50 AM 53 °F - 40 °F 51% 30.14 in 17 mi SW 3.5 mph - -  
9:50 AM 53.6 °F - 41.0 °F 62% 30.12 in 6.2 mi SW 3.5 mph - N/A   Unknown
10:50 AM 57.2 °F - 39.2 °F 51% 30.12 in 6.2 mi SW 2.3 mph - N/A   Unknown
11:50 AM 59.0 °F - 41.0 °F 51% 30.09 in 6.2 mi West 4.6 mph - N/A   Unknown
12:50 PM 58 °F - 39 °F 38% 30.09 in 19 mi WNW 4.6 mph - -  
12:50 PM 59.0 °F - 39.2 °F 48% 30.06 in 6.2 mi WNW 4.6 mph - N/A   Unknown
1:50 PM 60.8 °F - 42.8 °F 52% 30.06 in 6.2 mi WSW 3.5 mph - N/A   Unknown
2:50 PM 62.6 °F - 46.4 °F 55% 30.04 in 6.2 mi WSW 8.1 mph - N/A   Unknown
3:50 PM 64 °F - 48 °F 45% 30.03 in 22 mi WSW 10.4 mph - -   Scattered Clouds
3:50 PM 64.4 °F - 48.2 °F 56% 30.04 in 6.2 mi WSW 10.4 mph - N/A   Partly Cloudy
4:50 PM 62.6 °F - 48.2 °F 59% 30.01 in 6.2 mi SSW 5.8 mph - N/A   Scattered Clouds
5:50 PM 62.6 °F - 50.0 °F 63% 29.98 in 6.2 mi West 15.0 mph - N/A   Mostly Cloudy
6:50 PM 60 °F - 48 °F 55% 29.98 in 18 mi WSW 12.7 mph - -  
6:50 PM 60.8 °F - 48.2 °F 63% 29.98 in 6.2 mi WSW 12.7 mph - N/A   Unknown
7:50 PM 57.2 °F - 46.4 °F 67% 29.95 in 6.2 mi West 15.0 mph - N/A   Unknown
8:50 PM 53.6 °F - 46.4 °F 77% 29.95 in 6.2 mi West 8.1 mph - N/A   Unknown
9:50 PM 49 °F - 44 °F 76% 29.97 in 13 mi WSW 9.2 mph - -  
9:50 PM 50.0 °F - 44.6 °F 82% 29.95 in 6.2 mi WSW 9.2 mph - N/A   Unknown
10:50 PM 46.4 °F 42.4 °F 42.8 °F 87% 29.95 in 6.2 mi WSW 8.1 mph - N/A   Unknown
11:50 PM 44.6 °F 41.4 °F 42.8 °F 93% 29.92 in 6.2 mi SSW 5.8 mph - N/A   Unknown